GSAT0212 (GALILEO 16) (41860 NORAD) Tracking and Keplerian Element Data

This shows tracking and keplerian element data for the satellite.

Feedback or suggestion? Click here.




ElementValue
Catalog41860
NameGSAT0212 (GALILEO 16)
Epoch Orbit1035
Epoch Day198.32702087
Epoch Year2018
RAAN181.3383
Inclination54.5821
Eccentricity0.000531
Argument of Perigee296.0684
Mean Anonmoly63.8461
Mean Motion1.70473274
Decay Rate5E-07
L11 41860U 16069B 18198.32702087 .00000050 00000-0 00000-0 0 9992
L22 41860 54.5821 181.3383 0005310 296.0684 63.8461 1.70473274 10359

Live tracking and technical data element details for GSAT0212 (GALILEO 16) (NORAD 41860). GSAT0212 (GALILEO 16) can be tracked NOW for your location showing map with azimuth and elevation plus other details from your city location.

Track the satellite on the map from your city or location and see movement details for azimuth, elevation, latitude, longitude, range, height, and movement on the map or in text.







IsCatalogInMostPopularTable: catalog: 41860, numindb: 89
Update: records affected: 1



GetName: 41860 GSAT0212 (GALILEO 16)

Hit Count: updated at: Wed, 18 Jul 2018 20:30:48 GMT